Tracking 35274 objects as of 10-Sep-2026
HD Live streaming from Space Station
objects crossing your sky now

COSMOS 1472 DEB


COSMOS 1472 DEB is no longer on orbit


NORAD ID: 14203
Int'l Code: 1983-068F
Launch date: July 5, 1983
Source: Commonwealth of Independent States (former USSR) (CIS)
Launch site: PLESETSK MISSILE AND SPACE COMPLEX (PKMTR)
Decay date: 1983-08-28

Note: This is SATELLITE DEBRIS
Your satellite tracking list
Your tracking list is empty




NASA's NSSDC Master Catalog

Two Line Element Set (TLE):
1 14203U 83068  F 83240.89225285  .14543168 -13794-5 +93146-2 0  9990
2 14203 082.3419 007.7466 0011338 293.1905 066.0251 16.17383085008532
Source of the keplerian elements: AFSPC